SCP
-0 -0 -0 -0 -0 -0 -0 0 0 0 -0 -0 -0 -0 -0 -0 0 0 0 0 0 0 0 0 0 0 0 0 -0 0 0 0
-0 -0 -0 -0 -0 -0 -0 -0 0 -0 0 -0 -0 -0 -0 -0 -0 -0 0 0 0 0 0 0 0 0 0 0 0 0 0 0
-0 -0 -0 -0 -0 -0 -0 -0 0 0 0 0 -0 0 -0 -0 -0 -0 0 0 0 0 0 0 0 0 0 0 0 0 0 0
0 -0 0 0 -0 0 -0 -0 -0 0 0 0 0 0 0 0 0 0 0 0 0 0 0 0 0 0 0 0 0 0 0 0
-0 -0 -0 -0 -0 -0 0 -0 -0 -0 0 0 0 0 0 0 0 0 0 0 0 0 0 0 0 0 0 0 0 0 0 0
-0 -0 -0 -0 -0 -0 -0 -0 -0 -0 -0 0 0 0 0 0 0 0 0 0 0 0 0 0 0 0 0 0 0 0 0 0
-0 -0 -0 -0 -0 -0 -0 -0 -0 -0 -0 0 0 0 0 0 0 0 0 0 0 0 0 0 0 0 0 0 0 0 0 0
-0 -0 -0 -0 -0 -0 -0 0 -0 0 0 0 0 0 0 0 0 0 0 0 0 0 0 0 0 0 0 0 0 0 0 0
-0 -0 -0 -0 0 -0 -0 0 0 0 0 0 0 0 0 0 0 0 0 0 0 0 0 0 0 0 0 0 0 0 0 0
0 0 -0 -0 -0 -0 0 0 0 0 0 0 0 0 0 0 0 0 0 0 0 0 0 0 0 0 0 0 0 0 0 0
0 0 -0 0 -0 0 0 0 0 0 0 0 0 0 0 0 0 0 0 0 0 0 0 0 0 0 0 0 0 0 0 0
0 0 0 0 0 0 0 1 0 1 0 0 0 0 0 0 0 0 0 0 0 0 0 0 0 0 0 0 0 0 0 0
0 0 0 0 1 1 1 1 1 1 1 1 1 0 0 0 0 0 0 0 0 0 0 0 0 0 0 0 0 0 0 0
0 0 0 1 1 3 4 2 2 1 1 1 0 0 0 0 0 0 0 0 0 0 0 0 0 0 0 0 0 0 0 0
1 0 1 1 2 3 3 2 1 2 1 1 1 0 0 1 0 0 0 0 0 0 0 0 0 0 0 0 0 0 0 0
1 1 1 1 2 2 2 1 0 2 0 1 1 1 1 0 0 0 0 0 0 0 0 0 0 0 0 0 0 0 0 0
1 0 1 1 1 1 0 1 2 1 1 0 0 1 1 1 0 0 0 0 1 1 0 0 0 0 0 0 0 0 0 0
0 0 1 1 0 0 0 0 0 0 0 0 1 1 0 1 0 0 0 0 0 0 0 0 0 0 0 0 0 0 0 0
0 0 1 0 0 0 0 0 0 0 1 0 0 1 1 0 0 0 0 0 0 0 0 0 0 0 0 0 0 0 0 0
0 0 0 0 0 0 0 0 0 0 0 0 0 0 0 0 0 0 0 0 0 0 0 0 0 0 0 0 0 0 0 0
Wind_Speed_500mb
56 50 33 19 20 27 24 23 29 14 18 10 12 11 10 11 8 5 9 9 11 10 8 7 8 14 13 20 12 6 13 4
57 50 36 37 29 27 28 24 19 14 13 8 11 10 12 8 9 10 9 6 5 8 7 5 8 7 4 18 12 17 21 17
53 40 37 35 30 33 30 29 21 17 13 13 9 9 5 3 2 4 3 5 2 10 9 5 4 8 6 14 7 15 10 16
55 56 48 45 34 35 33 29 24 21 18 17 15 17 10 5 4 5 8 12 14 15 10 7 11 9 5 9 4 13 5 8
53 52 56 52 43 38 37 33 29 29 28 22 16 16 12 9 12 17 17 18 13 14 15 8 15 12 9 13 14 19 9 12
56 52 50 49 43 44 46 41 36 42 36 31 24 19 18 19 17 22 20 19 18 15 14 13 15 19 16 18 10 10 15 19
62 56 53 52 51 47 43 43 39 42 55 48 38 33 33 23 22 20 22 22 19 17 7 17 18 25 28 19 12 13 16 24
66 59 60 58 54 50 43 37 38 36 43 49 42 35 26 24 27 28 24 20 19 19 17 20 22 26 27 22 12 22 24 31
68 60 65 65 59 52 51 42 46 42 43 41 42 38 24 23 16 18 17 20 24 24 26 26 25 22 14 19 19 22 24 30
68 58 57 74 60 57 48 47 46 38 41 36 31 30 28 21 19 24 23 26 24 27 26 27 26 24 22 22 27 26 24 32
63 62 64 71 69 67 50 46 40 36 34 37 35 35 39 34 33 30 19 20 20 21 23 22 22 22 27 30 32 35 35 30
66 78 63 57 57 53 43 40 37 34 33 39 41 43 40 30 30 28 25 25 16 13 6 9 16 19 24 30 33 41 43 39
79 78 69 59 50 43 34 34 36 35 37 40 36 40 35 24 28 33 32 26 22 20 17 14 10 11 17 21 31 37 42 45
85 79 71 60 44 38 36 31 30 28 32 36 39 35 38 37 31 35 33 29 25 27 27 26 25 21 15 19 24 33 37 47
85 81 69 54 48 41 32 23 23 23 31 40 42 40 31 39 36 32 31 31 29 28 36 36 34 29 30 30 32 30 34 42
82 72 68 61 56 47 35 16 19 22 32 39 43 43 33 29 37 36 35 34 36 31 29 31 38 40 42 41 48 45 43 48
67 65 67 72 67 60 40 15 36 36 34 26 30 35 42 30 39 44 34 34 34 32 39 36 36 43 47 51 51 52 52 52
68 74 76 74 68 61 45 3 39 39 31 22 26 32 28 30 44 44 35 32 23 35 32 32 38 40 38 39 41 44 48 50
62 65 70 75 72 61 27 19 32 42 24 18 23 25 35 42 44 44 32 27 32 26 21 19 23 27 34 31 30 31 35 40
57 58 60 62 53 39 32 28 31 37 28 28 50 44 30 32 37 22 22 23 21 20 26 29 32 32 34 31 31 35 32 30
Wind_Direction_500mb
184 184 177 176 172 164 156 139 152 130 141 135 174 164 144 153 160 100 95 61 46 41 69 17 9 22 22 34 19 73 45 75
187 187 188 185 187 181 167 167 170 168 162 134 158 163 141 133 115 78 95 42 346 354 341 355 347 354 2 26 44 113 74 95
187 194 192 198 190 187 183 185 176 180 177 166 179 205 159 112 181 352 208 294 274 290 305 311 278 301 342 7 31 150 70 125
186 189 189 194 190 188 194 196 184 187 186 197 218 218 190 175 190 297 276 292 255 280 280 283 304 315 320 6 12 173 99 167
193 191 186 193 201 198 204 211 206 214 211 209 214 207 213 233 283 268 254 280 304 300 274 263 299 284 307 314 297 229 212 216
196 193 197 201 204 203 200 206 222 228 218 206 215 212 220 241 254 245 250 272 292 311 279 261 293 289 278 277 271 242 211 192
199 202 209 213 215 213 218 224 223 219 224 228 227 229 224 234 243 242 256 275 280 292 290 298 282 280 270 265 241 233 228 207
204 207 208 212 214 217 223 224 217 218 216 226 230 218 228 238 261 263 273 279 290 283 278 273 265 278 267 254 251 240 249 221
206 207 209 210 212 217 220 233 226 217 214 214 222 224 220 235 258 286 258 266 263 265 270 277 273 264 264 258 253 261 259 228
204 212 214 207 220 217 229 233 230 234 220 226 230 234 222 228 243 262 250 263 266 283 280 282 265 250 250 243 251 259 259 239
197 204 205 213 218 218 226 235 240 239 234 218 225 221 216 227 231 243 250 262 267 267 276 269 261 252 247 254 263 260 265 255
197 193 195 204 211 218 223 240 252 247 235 226 240 243 231 230 238 244 238 245 277 266 281 305 279 277 267 264 260 266 260 260
201 204 209 214 215 218 225 239 248 252 253 248 251 255 245 246 243 242 239 254 270 248 269 283 282 306 292 286 271 268 262 261
208 208 215 214 212 221 223 229 247 260 270 268 261 255 243 238 246 245 244 257 254 264 272 275 284 276 283 291 286 277 276 269
204 205 206 204 204 207 205 209 222 239 253 256 258 245 237 240 265 242 256 262 257 271 276 272 280 286 282 277 281 283 285 280
200 200 198 202 200 190 185 209 220 248 257 249 255 244 233 255 265 244 253 260 260 267 282 270 279 288 291 287 284 285 286 285
184 192 198 198 195 185 176 222 250 275 258 247 250 246 245 246 274 258 251 248 258 272 298 284 280 282 284 285 289 289 291 287
177 187 190 193 199 197 189 226 254 240 251 255 245 253 256 262 253 262 262 265 275 288 278 277 283 288 290 296 300 298 293 290
159 172 186 189 193 193 207 244 233 231 229 230 266 260 266 257 256 266 267 266 283 296 309 318 316 305 302 304 302 303 304 306
162 174 181 187 189 210 212 217 237 204 219 272 299 244 248 266 267 259 273 283 310 324 319 314 310 310 312 308 298 305 307 312
Wind_Speed_850mb
56 50 33 19 20 27 24 23 29 14 18 10 12 11 10 11 8 5 9 9 11 10 8 7 8 14 13 20 12 6 13 4
57 50 36 37 29 27 28 24 19 14 13 8 11 10 12 8 9 10 9 6 5 8 7 5 8 7 4 18 12 17 21 17
53 40 37 35 30 33 30 29 21 17 13 13 9 9 5 3 2 4 3 5 2 10 9 5 4 8 6 14 7 15 10 16
55 56 48 45 34 35 33 29 24 21 18 17 15 17 10 5 4 5 8 12 14 15 10 7 11 9 5 9 4 13 5 8
53 52 56 52 43 38 37 33 29 29 28 22 16 16 12 9 12 17 17 18 13 14 15 8 15 12 9 13 14 19 9 12
56 52 50 49 43 44 46 41 36 42 36 31 24 19 18 19 17 22 20 19 18 15 14 13 15 19 16 18 10 10 15 19
62 56 53 52 51 47 43 43 39 42 55 48 38 33 33 23 22 20 22 22 19 17 7 17 18 25 28 19 12 13 16 24
66 59 60 58 54 50 43 37 38 36 43 49 42 35 26 24 27 28 24 20 19 19 17 20 22 26 27 22 12 22 24 31
68 60 65 65 59 52 51 42 46 42 43 41 42 38 24 23 16 18 17 20 24 24 26 26 25 22 14 19 19 22 24 30
68 58 57 74 60 57 48 47 46 38 41 36 31 30 28 21 19 24 23 26 24 27 26 27 26 24 22 22 27 26 24 32
63 62 64 71 69 67 50 46 40 36 34 37 35 35 39 34 33 30 19 20 20 21 23 22 22 22 27 30 32 35 35 30
66 78 63 57 57 53 43 40 37 34 33 39 41 43 40 30 30 28 25 25 16 13 6 9 16 19 24 30 33 41 43 39
79 78 69 59 50 43 34 34 36 35 37 40 36 40 35 24 28 33 32 26 22 20 17 14 10 11 17 21 31 37 42 45
85 79 71 60 44 38 36 31 30 28 32 36 39 35 38 37 31 35 33 29 25 27 27 26 25 21 15 19 24 33 37 47
85 81 69 54 48 41 32 23 23 23 31 40 42 40 31 39 36 32 31 31 29 28 36 36 34 29 30 30 32 30 34 42
82 72 68 61 56 47 35 16 19 22 32 39 43 43 33 29 37 36 35 34 36 31 29 31 38 40 42 41 48 45 43 48
67 65 67 72 67 60 40 15 36 36 34 26 30 35 42 30 39 44 34 34 34 32 39 36 36 43 47 51 51 52 52 52
68 74 76 74 68 61 45 3 39 39 31 22 26 32 28 30 44 44 35 32 23 35 32 32 38 40 38 39 41 44 48 50
62 65 70 75 72 61 27 19 32 42 24 18 23 25 35 42 44 44 32 27 32 26 21 19 23 27 34 31 30 31 35 40
57 58 60 62 53 39 32 28 31 37 28 28 50 44 30 32 37 22 22 23 21 20 26 29 32 32 34 31 31 35 32 30
Wind_Direction_850mb
184 184 177 176 172 164 156 139 152 130 141 135 174 164 144 153 160 100 95 61 46 41 69 17 9 22 22 34 19 73 45 75
187 187 188 185 187 181 167 167 170 168 162 134 158 163 141 133 115 78 95 42 346 354 341 355 347 354 2 26 44 113 74 95
187 194 192 198 190 187 183 185 176 180 177 166 179 205 159 112 181 352 208 294 274 290 305 311 278 301 342 7 31 150 70 125
186 189 189 194 190 188 194 196 184 187 186 197 218 218 190 175 190 297 276 292 255 280 280 283 304 315 320 6 12 173 99 167
193 191 186 193 201 198 204 211 206 214 211 209 214 207 213 233 283 268 254 280 304 300 274 263 299 284 307 314 297 229 212 216
196 193 197 201 204 203 200 206 222 228 218 206 215 212 220 241 254 245 250 272 292 311 279 261 293 289 278 277 271 242 211 192
199 202 209 213 215 213 218 224 223 219 224 228 227 229 224 234 243 242 256 275 280 292 290 298 282 280 270 265 241 233 228 207
204 207 208 212 214 217 223 224 217 218 216 226 230 218 228 238 261 263 273 279 290 283 278 273 265 278 267 254 251 240 249 221
206 207 209 210 212 217 220 233 226 217 214 214 222 224 220 235 258 286 258 266 263 265 270 277 273 264 264 258 253 261 259 228
204 212 214 207 220 217 229 233 230 234 220 226 230 234 222 228 243 262 250 263 266 283 280 282 265 250 250 243 251 259 259 239
197 204 205 213 218 218 226 235 240 239 234 218 225 221 216 227 231 243 250 262 267 267 276 269 261 252 247 254 263 260 265 255
197 193 195 204 211 218 223 240 252 247 235 226 240 243 231 230 238 244 238 245 277 266 281 305 279 277 267 264 260 266 260 260
201 204 209 214 215 218 225 239 248 252 253 248 251 255 245 246 243 242 239 254 270 248 269 283 282 306 292 286 271 268 262 261
208 208 215 214 212 221 223 229 247 260 270 268 261 255 243 238 246 245 244 257 254 264 272 275 284 276 283 291 286 277 276 269
204 205 206 204 204 207 205 209 222 239 253 256 258 245 237 240 265 242 256 262 257 271 276 272 280 286 282 277 281 283 285 280
200 200 198 202 200 190 185 209 220 248 257 249 255 244 233 255 265 244 253 260 260 267 282 270 279 288 291 287 284 285 286 285
184 192 198 198 195 185 176 222 250 275 258 247 250 246 245 246 274 258 251 248 258 272 298 284 280 282 284 285 289 289 291 287
177 187 190 193 199 197 189 226 254 240 251 255 245 253 256 262 253 262 262 265 275 288 278 277 283 288 290 296 300 298 293 290
159 172 186 189 193 193 207 244 233 231 229 230 266 260 266 257 256 266 267 266 283 296 309 318 316 305 302 304 302 303 304 306
162 174 181 187 189 210 212 217 237 204 219 272 299 244 248 266 267 259 273 283 310 324 319 314 310 310 312 308 298 305 307 312